Theta_e
360 360 358 358 359 359 360 360 359 359 361 359 357 359 359 361 362 364 364 367 369 371 371 369 371 368 363 366 375 371 365 365 364 364 363 365 363 361 357 357 359 358
359 362 362 360 360 362 363 363 363 361 362 362 363 363 363 366 361 363 365 366 370 367 371 368 368 367 367 367 372 368 369 371 369 363 363 365 365 363 359 360 359 361
358 359 358 359 357 360 359 360 363 363 361 360 361 363 362 363 365 364 366 366 366 364 367 369 368 369 367 367 370 365 363 367 365 361 364 367 364 360 361 355 357 358
359 360 357 357 359 359 358 361 360 361 362 360 361 360 360 360 362 365 365 367 367 365 367 367 367 366 366 367 373 366 364 367 364 366 365 368 364 361 360 361 359 358
359 360 360 359 358 359 361 359 358 359 357 359 360 363 362 365 366 364 367 366 366 365 365 364 367 364 367 369 372 368 364 364 365 368 365 361 364 362 359 358 358 357
360 363 362 360 360 359 358 359 360 359 359 356 359 360 362 363 363 363 363 363 363 359 360 362 363 362 363 365 365 365 364 359 360 368 367 365 362 363 359 359 362 362
356 358 357 358 359 360 360 360 360 361 359 358 361 360 362 362 362 361 364 362 362 362 358 360 363 363 362 364 366 368 366 364 362 365 368 362 363 362 363 362 363 362
357 356 357 357 356 358 359 359 360 359 361 361 359 361 362 361 363 362 362 362 361 360 362 361 364 368 364 363 363 363 366 363 361 361 362 362 360 360 361 359 360 360
358 358 356 354 354 355 356 356 357 359 361 360 358 359 362 362 361 360 361 362 362 361 364 363 366 365 365 362 362 363 364 362 358 360 363 362 362 364 362 361 361 362
358 358 357 355 353 353 354 356 355 357 359 358 357 357 357 360 361 361 360 365 364 365 368 366 364 364 363 362 362 363 364 364 364 362 361 360 360 360 360 360 359 361
357 358 357 357 357 354 354 355 355 355 357 358 358 356 356 357 359 361 362 365 361 362 365 363 363 363 363 362 360 361 362 361 363 364 362 362 363 362 363 362 361 360
358 357 355 356 357 357 357 355 355 355 354 355 357 357 358 355 356 356 358 363 364 363 362 363 364 363 364 364 362 360 358 359 360 361 360 357 359 362 361 358 358 357
357 356 357 356 359 361 360 359 357 355 354 353 356 357 357 355 355 357 357 359 362 362 360 362 362 361 365 367 363 359 362 356 358 361 357 359 357 358 355 357 358 358
359 358 360 362 362 363 363 360 358 357 356 356 356 357 356 356 355 354 357 357 358 359 360 361 360 361 364 361 364 364 363 361 362 361 361 360 361 358 358 358 360 358
363 363 364 365 365 366 366 365 360 357 358 359 357 357 355 357 357 354 353 354 355 360 360 360 356 358 358 358 362 364 364 359 362 359 359 359 358 356 359 361 362 358
366 365 365 367 367 357 357 362 363 360 356 359 359 358 359 360 359 358 355 353 354 357 357 355 356 358 360 355 359 362 362 360 360 362 362 360 358 356 355 355 357 363
368 368 368 368 357 354 353 356 359 363 362 359 359 361 361 363 359 359 357 355 353 353 351 352 350 345 339 337 339 347 359 357 357 360 361 362 364 362 359 354 358 359
372 372 372 365 363 359 358 358 360 361 364 365 363 359 363 363 360 359 359 358 354 349 351 351 345 333 330 333 335 337 345 356 355 354 353 356 359 357 359 359 357 356
371 371 370 368 367 365 364 364 362 359 361 363 362 360 360 361 363 361 360 361 358 353 355 349 344 329 328 330 332 332 335 348 355 357 356 360 356 356 355 356 357 360
369 369 366 365 366 364 365 365 363 363 365 364 361 361 359 363 363 361 363 363 362 359 355 348 340 327 324 325 327 327 332 341 358 360 358 358 358 357 356 358 363 360
368 366 364 364 364 363 363 363 363 362 362 362 362 362 362 363 361 362 363 363 364 356 352 340 330 319 322 322 322 323 327 341 357 360 358 357 359 359 359 360 361 361
366 364 360 360 360 360 359 359 360 360 359 358 359 363 362 366 359 364 363 363 361 351 346 337 326 316 318 318 318 320 324 349 358 360 359 358 357 357 359 362 363 362
360 359 357 357 357 355 357 360 360 356 354 352 359 362 363 359 363 361 353 347 348 347 342 332 325 318 314 314 315 315 331 351 357 357 357 357 358 359 359 359 360 361
355 352 350 353 352 352 353 355 356 354 355 355 355 351 355 357 359 352 349 349 347 344 338 328 320 317 312 312 312 313 325 349 353 353 353 354 353 353 354 355 355 358
349 348 347 349 350 351 352 353 353 352 354 355 351 348 350 352 347 344 345 347 347 344 340 332 325 321 313 311 310 311 326 342 338 340 337 334 337 339 342 346 351 351
348 348 349 348 349 349 351 352 353 354 351 348 347 348 346 346 345 345 343 343 344 341 337 331 325 322 321 311 309 311 313 336 331 327 324 325 327 331 332 337 340 344
Wind_Speed
9 8 8 7 7 6 6 6 6 6 5 4 6 5 4 5 5 4 5 4 5 4 5 4 4 4 4 4 3 3 3 3 5 3 4 4 5 6 5 5 5 6
10 9 7 8 7 6 6 6 6 6 6 5 3 4 4 4 5 5 5 5 5 5 4 5 5 4 4 3 4 3 3 4 4 4 4 4 5 5 6 7 6 5
11 10 10 10 9 9 9 8 6 6 6 7 6 5 5 6 5 6 5 5 5 6 6 4 4 4 4 5 4 5 5 4 5 5 4 4 4 6 6 7 6 6
11 11 10 11 9 9 9 8 8 7 7 6 6 7 6 5 7 7 6 5 5 4 4 4 4 4 5 5 5 5 5 4 5 5 4 5 5 6 6 6 6 6
12 11 10 10 9 8 8 8 8 8 8 7 7 6 6 5 4 6 6 6 5 6 6 5 4 5 3 4 5 5 5 5 5 6 5 5 6 6 6 5 5 6
11 11 10 9 9 10 9 8 8 8 9 9 7 7 7 7 6 6 6 7 8 7 7 7 7 6 6 6 6 5 5 5 4 4 5 5 5 6 5 5 4 4
13 12 12 11 11 10 10 9 8 8 8 7 8 7 7 8 8 8 7 6 7 6 8 6 6 4 5 4 5 5 5 5 6 4 5 6 5 6 6 5 5 5
11 11 11 11 11 11 10 9 9 8 8 7 8 8 7 7 8 8 7 6 6 6 5 4 5 5 6 6 6 6 7 6 7 7 6 6 6 6 6 6 5 6
10 10 11 12 12 11 11 11 9 9 8 7 8 7 8 7 7 7 7 7 6 5 5 6 4 6 6 7 7 6 7 7 7 5 6 7 7 7 7 7 7 6
10 10 11 11 12 10 10 10 9 9 8 9 8 8 8 8 7 6 7 6 6 5 5 6 6 6 7 7 8 7 6 7 7 7 6 6 7 7 7 7 7 7
11 11 11 11 10 9 10 10 9 9 9 9 8 8 8 7 8 6 6 7 7 8 6 7 7 7 6 7 8 8 7 6 8 5 7 6 7 7 8 8 8 8
12 11 11 11 11 10 9 9 9 9 9 8 8 8 8 8 8 8 6 7 7 8 6 8 6 7 7 6 5 7 7 5 4 5 3 7 8 7 7 10 10 13
12 12 11 11 10 9 8 8 9 9 9 8 8 8 8 8 8 8 9 8 8 8 9 7 7 7 5 4 6 7 3 1 3 3 1 4 4 4 2 3 8 6
10 11 10 8 8 9 9 9 8 8 8 8 8 9 9 9 9 9 8 8 8 9 8 7 8 7 4 3 6 7 3 2 1 2 4 3 2 3 5 6 5 6
9 8 8 7 7 7 8 8 8 7 7 7 7 8 8 9 9 9 9 9 8 3 4 6 5 3 6 6 2 4 4 6 5 5 6 6 6 7 7 8 7 7
9 9 7 7 4 7 6 6 6 7 8 7 7 7 7 7 8 8 9 8 8 8 7 7 6 4 7 7 3 5 5 5 4 4 6 7 8 8 9 9 8 7
9 8 8 7 6 8 5 4 5 4 6 7 8 7 7 6 7 7 8 8 6 1 5 5 8 7 10 8 6 7 5 5 6 6 8 7 7 6 8 9 9 9
9 8 7 7 7 7 7 6 4 4 4 4 4 7 8 7 8 8 5 6 5 12 7 4 7 11 11 9 9 9 9 5 6 7 6 6 7 9 7 7 9 9
9 8 8 8 9 9 8 7 5 4 5 6 8 9 8 7 7 7 7 5 6 9 5 7 6 7 7 8 8 9 9 8 6 7 7 8 9 8 8 9 8 6
10 9 9 9 9 10 8 7 6 6 6 6 5 4 5 6 5 8 4 2 2 8 6 7 7 7 8 9 10 10 9 8 6 7 7 8 7 8 8 7 3 2
9 10 11 10 9 8 8 8 7 6 8 7 5 5 6 6 5 6 5 4 4 7 6 7 7 9 10 10 11 10 11 9 6 6 7 8 6 7 7 6 7 5
9 9 10 9 8 7 8 8 8 7 4 2 5 7 6 2 3 2 2 3 1 7 7 8 8 9 10 10 10 10 11 7 6 6 6 7 7 8 7 7 6 6
7 7 7 8 7 7 5 5 6 6 7 9 6 4 4 4 3 1 7 9 7 6 9 7 6 8 10 11 11 12 9 5 6 6 6 7 6 6 6 7 6 6
5 5 5 5 5 5 6 5 3 1 1 1 1 2 4 1 4 7 7 7 8 9 8 7 7 9 12 12 13 14 10 6 5 5 6 6 6 6 6 5 6 14
4 3 4 5 7 7 6 5 4 5 2 4 5 4 3 5 5 6 6 6 8 9 13 10 8 8 11 11 12 13 10 6 6 5 5 6 6 6 6 6 4 8
5 4 3 4 5 7 7 5 5 5 5 6 6 5 4 5 5 6 6 7 7 7 7 8 8 7 7 8 10 12 14 7 5 5 6 6 6 5 6 4 4 2
Wind_Direction
196 196 197 202 205 213 212 205 205 201 222 211 197 192 189 184 203 187 193 172 181 198 181 200 190 220 221 205 226 247 269 282 297 264 263 275 291 284 283 289 287 285
199 199 200 201 203 207 213 218 202 220 189 225 235 166 184 173 184 198 195 196 188 202 180 197 206 210 230 242 209 239 246 260 258 268 264 259 264 277 278 279 283 279
201 199 201 209 204 201 209 204 211 208 209 205 197 210 191 188 194 183 197 205 213 209 179 205 211 205 225 221 229 241 244 232 247 262 271 278 285 281 282 279 278 289
203 207 205 208 215 204 204 209 200 212 219 204 204 197 219 204 188 180 191 201 211 222 208 210 216 217 207 214 212 239 240 242 253 269 275 270 273 284 288 287 283 286
200 205 212 209 211 217 209 209 211 200 215 210 205 204 190 228 196 193 184 188 212 213 204 221 213 234 231 232 225 243 248 244 237 224 235 247 256 255 261 273 286 285
207 203 207 218 207 212 215 212 212 209 205 204 210 197 196 197 212 227 204 197 195 212 213 202 213 204 219 208 224 239 254 240 238 174 227 250 262 273 279 282 288 284
196 198 204 206 216 206 214 214 211 220 207 214 191 213 203 194 203 216 226 218 227 207 221 206 210 214 218 214 219 226 235 259 271 250 253 253 250 256 266 272 267 273
205 195 203 207 210 210 211 210 217 207 218 211 208 200 213 210 201 208 211 216 227 240 252 243 192 205 242 229 229 225 237 239 228 227 237 254 261 262 255 264 267 260
210 203 202 209 212 211 209 212 206 212 209 215 219 206 199 221 206 219 213 209 230 233 210 227 212 223 224 238 239 232 239 250 261 227 220 245 244 240 245 244 246 251
209 216 211 209 214 215 215 216 213 205 199 214 219 229 208 192 221 218 213 202 213 211 202 223 218 221 234 233 234 241 246 242 252 269 263 256 259 262 259 255 253 250
210 212 217 212 221 221 218 214 216 216 197 207 215 226 227 202 191 214 215 192 216 215 207 220 229 231 234 250 254 234 229 244 249 263 260 270 281 299 289 295 282 274
208 210 215 214 215 224 227 223 213 219 219 196 211 220 226 228 175 203 206 208 221 221 200 224 226 240 234 230 262 275 260 303 306 242 336 332 311 309 342 316 337 319
213 211 213 212 208 216 222 231 227 215 223 213 192 217 220 219 221 190 195 210 211 226 230 211 216 236 253 275 265 259 29 159 283 12 117 206 224 230 200 254 259 276
218 216 209 213 205 205 213 223 237 237 223 224 216 202 220 214 224 217 179 214 219 219 217 220 228 211 93 290 271 277 285 273 189 298 298 276 279 285 269 267 277 269
211 223 213 202 207 197 203 219 230 249 248 234 228 232 218 223 220 231 215 200 204 165 273 256 239 143 168 219 276 270 260 275 246 238 251 264 262 264 251 248 244 263
201 208 205 198 111 46 355 337 298 255 243 244 241 234 239 236 233 227 238 217 192 187 216 218 212 158 93 115 173 236 225 250 286 289 270 280 282 277 273 261 251 250
190 190 193 130 130 169 191 214 210 241 259 243 236 243 244 240 243 240 233 240 249 280 323 358 62 43 32 52 51 14 302 249 232 224 230 237 262 270 263 276 271 273
169 171 164 152 161 162 189 207 232 258 250 235 241 243 232 234 226 230 246 254 69 72 79 32 45 7 15 22 24 19 12 320 282 272 269 231 219 245 249 248 260 263
172 168 166 161 171 173 180 190 190 220 240 232 216 222 234 228 233 233 223 215 114 114 144 128 111 34 2 9 18 12 2 331 298 299 301 297 296 294 296 300 307 1
177 167 165 170 169 173 172 173 187 201 220 223 233 245 254 236 236 222 189 242 133 123 115 95 87 35 24 17 12 359 344 328 303 299 294 296 298 299 296 307 350 359
174 175 169 165 171 176 174 170 184 207 212 222 233 223 217 209 229 232 207 200 197 103 115 89 63 21 27 21 9 349 338 312 298 296 297 298 321 323 323 341 335 344
182 175 176 172 179 174 183 181 183 198 226 317 253 227 218 183 203 247 255 244 358 100 98 76 58 26 28 22 5 349 323 293 297 304 300 301 301 305 317 317 316 312
190 186 167 162 152 165 180 190 186 169 191 221 218 225 178 203 205 124 37 44 46 91 89 90 73 36 28 22 8 358 326 326 312 303 308 307 312 305 300 303 311 309
83 92 100 112 137 167 198 196 153 225 111 193 113 287 293 340 48 89 100 88 84 92 95 88 69 42 32 21 11 1 338 319 335 327 316 321 323 329 324 321 336 49
158 125 162 204 185 181 183 169 168 173 139 69 69 57 358 84 67 65 78 94 92 90 92 89 77 57 38 22 11 11 359 16 16 3 14 7 345 343 341 335 352 67
104 139 162 196 191 170 165 144 126 101 86 86 67 88 93 76 76 79 64 71 84 85 86 94 90 73 55 29 22 15 8 5 36 20 17 0 353 341 325 316 355 57